GSAT0224 (GALILEO 28) (49810 NORAD) Tracking and Keplerian Element Data

This shows tracking and keplerian element data for the satellite.

Feedback or suggestion? Click here.




ElementValue
Catalog49810
NameGSAT0224 (GALILEO 28)
Epoch Orbit282
Epoch Day140.34615858
Epoch Year2022
RAAN21.8438
Inclination57.1596
Eccentricity0.0001475
Argument of Perigee80.2722
Mean Anonmoly97.7137
Mean Motion1.70475161
Decay Rate-9.4E-07
L11 49810U 21116B 22140.34615858 -.00000094 00000+0 00000+0 0 9994
L22 49810 57.1596 21.8438 0001475 80.2722 97.7137 1.70475161 2829

Live tracking and technical data element details for GSAT0224 (GALILEO 28) (NORAD 49810). GSAT0224 (GALILEO 28) can be tracked NOW for your location showing map with azimuth and elevation plus other details from your city location.

Track the satellite on the map from your city or location and see movement details for azimuth, elevation, latitude, longitude, range, height, and movement on the map or in text.







IsCatalogInMostPopularTable: catalog: 49810, numindb: 30
Update: records affected: 1



GetName: 49810 GSAT0224 (GALILEO 28)

Hit Count: updated at: Sun, 22 May 2022 06:59:12 GMT